Regional Weather Roundup
Issued by NWS

Home | Current Version | Previous Version | Graphics & Text | Print | Product List | Glossary On
Versions: 1 2 3 4 5 6 7 8 9 10 11 12 13 14 15 16 17 18 19 20 21 22 23 24 25 26 27 28 29 30 31 32 33 34 35 36 37 38 39 40 41 42 43 44 45 46 47 48 49 50
000
ASUS43 KDMX 281103
RWRIA

WEATHER ROUNDUP FOR IOWA
NATIONAL WEATHER SERVICE DES MOINES IA
600 AM CDT THU JUL 28 2016

NOTE: "FAIR" INDICATES FEW OR NO CLOUDS BELOW 12,000 FEET WITH NO
SIGNIFICANT WEATHER AND/OR OBSTRUCTIONS TO VISIBILITY.

* - THESE STATIONS ARE NOT NWS STATIONS...THUS NOT UNDER NWS
QUALITY CONTROL.  THEY ALSO DO NOT REPORT WEATHER SUCH
AS PRECIPITATION OR FOG.

IAZ001>003-012>014-020>022-031>034-043>046-281200-
   NORTHWEST IOWA

CITY           SKY/WX    TMP DP  RH WIND       PRES   REMARKS
CARROLL *      CLEAR     64  64 100 N5        29.99R
CHEROKEE *     CLEAR     62  62 100 CALM      30.01R
DENISON *      CLEAR     64  63  94 CALM      29.98S
LE MARS *      CLEAR     63  59  88 N3        30.03R
SHELDON *      PTCLDY    57  57 100 CALM      30.01R
SIOUX CITY     CLEAR     66  61  84 N3        30.01R
SPENCER        CLEAR     60  58  92 W3        30.02R
STORM LAKE *   CLEAR     63  61  94 N5        30.02R
$$

IAZ055>058-069>071-079>083-090>094-281200-
   SOUTHWEST IOWA

CITY           SKY/WX    TMP DP  RH WIND       PRES   REMARKS
ATLANTIC *     PTCLDY    66  66 100 NE6       29.98S
CLARINDA *       N/A     68  68 100 MISG      29.99R
COUNCIL BLFS *   N/A     68  68 100 N7        30.00R
CRESTON *      CLEAR     68  66  94 NE8       29.99R
HARLAN  *      CLEAR     66  66 100 N5        30.02F
LAMONI         CLEAR     67  67 100 N3        29.96R
RED OAK *      MOCLDY    68  66  94 N5        29.99R
SHENANDOAH *     N/A     68  68 100 CALM      29.98R
$$

IAZ047>049-059>061-072>074-084-281200-
   CENTRAL IOWA

CITY           SKY/WX    TMP DP  RH WIND       PRES   REMARKS
AMES           CLEAR     65  65 100 NW5       29.96S
ANKENY *         N/A    N/A N/A N/A MISG        N/A
BOONE *          N/A     64  64 100 N7        29.96S
CHARITON *       N/A    N/A N/A N/A MISG        N/A
DES MOINES     PTCLDY    70  66  87 N8        29.96R
GRINNELL*      CLEAR     66  65  94 NW5       29.95R FOG
KNOXVILLE *    CLEAR     70  68  94 N7        29.94R
MARSHALLTOWN   MOCLDY    62  62 100 NW5       29.94S
NEWTON *       MOCLDY    68  68 100 N5        29.95R
PELLA *        PTCLDY    68  67  95 N5        29.95R
PERRY *          N/A     66  65  99 NW5       29.98R
$$

IAZ004>006-015-016-023>025-035-036-281200-
   NORTH CENTRAL IOWA

CITY           SKY/WX    TMP DP  RH WIND       PRES   REMARKS
ALGONA *       CLOUDY    64  64 100 VRB6      29.99R
ESTHERVILLE    CLOUDY    63  63 100 N10       30.00R
FORT DODGE *   PTCLDY    63  61  94 NW3       29.98S
MASON CITY     CLOUDY    65  64  97 NW9       29.98R
FOREST CITY *  CLOUDY    63  63 100 N7        29.98R
IOWA FALLS *   MOCLDY    65  64  96 N6        29.97R FOG
$$

IAZ007>011-017>019-026>030-037>042-050>054-066-281200-
   NORTHEAST IOWA

CITY           SKY/WX    TMP DP  RH WIND       PRES   REMARKS
CEDAR RAPIDS   CLEAR     67  67 100 NW9       29.90S
CHARLES CITY * CLOUDY    66  66 100 N8        29.94F
CLINTON *      FOG       66  66 100 W5        29.89S VSB<1/4
DECORAH *      CLOUDY    68  68 100 CALM      29.92R
DUBUQUE        CLEAR     68  65  90 CALM      29.91S
MONTICELLO *   FOG       64  64 100 CALM      29.90S VSB 1
OELWEIN *      PTCLDY    64  64 100 NW8       29.94R FOG
WATERLOO       PTCLDY    65  64  97 NW6       29.91F FOG
$$

IAZ064-065-067-068-078-281200-
   EAST CENTRAL IOWA

CITY           SKY/WX    TMP DP  RH WIND       PRES   REMARKS
DAVENPORT      FOG       65  65 100 CALM      29.90R VSB 1/4
IOWA CITY      CLEAR     70  67  90 NW7       29.91S
MT. PLEASANT * CLEAR     69  69 100 NW3       29.90S
MUSCATINE *    CLEAR     66  64  94 S5        29.90R FOG
QUAD CITIES    CLEAR     68  65  90 W5        29.88S
$$

IAZ062-063-075>077-085>089-095>099-281200-
   SOUTHEAST IOWA

CITY           SKY/WX    TMP DP  RH WIND       PRES   REMARKS
BURLINGTON     CLEAR     69  68  96 NW6       29.89R
FAIRFIELD *    CLEAR     66  64  94 W5        29.91R FOG
KEOKUK *       CLEAR     70  70 100 NW5       29.89R
CENTERVILLE *    N/A     64  64 100 CALM      29.95R
OTTUMWA        CLEAR     66  65  96 W6        29.90S FOG
WASHINGTON *   CLEAR     66  66 100 W5        29.92R FOG
$$

ABBREVIATIONS USED IN REMARKS
   TC - TEMPERATURES IN CELSIUS
  WCI - WIND CHILL INDEX
   HX - HEAT INDEX
  VSB - VISIBILITY
$$





USA.gov is the U.S. government's official web portal to all federal, state and local government web resources and services.